[[{"header":{"parameterUnit":"m.s-1","parameterCategory":1,"la1":30.2991,"la2":30.254,"lo1":-89.0895,"lo2":-89.0444,"dy":0.0017,"dx":0.0017,"nx":28,"ny":28,"refTime":"2024-03-14T21:00:00:Z","depth":0,"parameterNumber":2,"parameterNumberName":"U-component_of_WINDS"},"data":[0,0,0,0,0,0,0,0,0,0,0,0,0,0,0,0,0,0,0,0,0,0,0,0,0,0,0,0,0,0,0,0,0,0,0,0,0,0,0,0,0,0,0,0,0,0,0,0,0,0,0,0,0,0,0,0,0,0,-0.6796,-0.6796,0,-0.6811,-0.6811,-0.6811,-0.6823,-0.6823,-0.6823,-0.6823,-0.6839,-0.6839,-0.684,0,0,0,0,0,0,0,0,0,0,0,0,0,-0.6775,-0.6775,-0.6795,-0.6796,-0.6796,-0.6811,-0.6811,-0.6812,-0.6823,-0.6823,-0.6823,-0.6823,-0.6839,-0.6839,-0.684,0,0,0,0,0,0,0,0,0,0,0,0,0,-0.6787,-0.6776,-0.6795,-0.6803,-0.6804,-0.6811,-0.6811,-0.6812,-0.6823,-0.6823,-0.6823,-0.6823,-0.6839,-0.6839,-0.684,-0.684,0,0,-0.6841,-0.6841,0,0,0,0,0,0,0,0,-0.6786,-0.6787,-0.6802,-0.6803,-0.6804,-0.6815,-0.681,-0.6821,-0.6823,-0.6816,-0.6823,-0.6823,-0.6831,-0.6832,-0.6835,-0.6841,-0.6841,-0.6841,-0.6842,-0.6842,-0.6842,0,0,0,0,0,0,0,-0.6785,-0.6787,-0.6802,-0.6802,-0.6803,-0.6806,-0.6808,-0.6812,-0.6822,-0.6816,-0.6817,-0.6819,-0.6831,-0.6834,-0.6835,-0.6842,-0.6841,-0.6842,-0.6842,-0.6842,-0.6848,-0.6848,0,0,0,0,0,0,-0.6783,-0.6786,-0.6801,-0.6802,-0.6795,-0.6806,-0.6808,-0.6811,-0.6822,-0.6824,-0.6819,-0.6819,-0.6833,-0.6835,-0.6836,-0.6836,-0.6842,-0.6842,-0.6843,-0.6848,-0.6848,-0.6848,0,0,0,0,0,0,-0.6783,-0.6784,-0.6801,-0.6794,-0.6797,-0.6806,-0.681,-0.6812,-0.6814,-0.6824,-0.6826,-0.682,-0.6833,-0.6835,-0.6839,-0.6837,-0.6842,-0.6843,-0.6848,-0.6848,-0.6848,-0.6838,0,0,0,0,0,0,-0.6782,-0.6784,-0.6784,-0.6794,-0.6797,-0.6803,-0.681,-0.6812,-0.6815,-0.6816,-0.6826,-0.6827,-0.6834,-0.6838,-0.6839,-0.6838,-0.6843,-0.6848,-0.6848,-0.6848,-0.6838,-0.6837,-0.6836,0,0,0,0,0,-0.6781,-0.6781,-0.6784,-0.6786,-0.6797,-0.6803,-0.6805,-0.6812,-0.6815,-0.6815,-0.6822,-0.6827,-0.6837,-0.6838,-0.684,-0.6838,-0.6849,-0.6848,-0.6848,-0.6839,-0.6837,-0.6836,0,0,0,0,0,0,-0.6771,-0.6782,-0.6786,-0.6789,-0.6795,-0.6805,-0.6806,-0.6811,-0.6816,-0.6816,-0.6825,-0.6828,-0.683,-0.6835,-0.6836,-0.6839,-0.6843,-0.6843,-0.6836,-0.6835,-0.6834,-0.6832,-0.6844,0,0,0,0,0,-0.6769,-0.6773,-0.6783,-0.6784,-0.6787,-0.6796,-0.6799,-0.6804,-0.681,-0.6813,-0.6819,-0.6825,-0.683,-0.6833,-0.6837,-0.6839,-0.6841,-0.6839,-0.6838,-0.6837,-0.6837,-0.6837,-0.6837,-0.6847,-0.6847,-0.6847,0,0,-0.6765,-0.6772,-0.6774,-0.6782,-0.6787,-0.6791,-0.6798,-0.6801,-0.6804,-0.6813,-0.6817,-0.6822,-0.6829,-0.6832,-0.6833,-0.6836,-0.6834,-0.6837,-0.6836,-0.6836,-0.6837,-0.6836,-0.6835,-0.6846,-0.6846,-0.6847,0,0,-0.6759,-0.6765,-0.6767,-0.6772,-0.6779,-0.6785,-0.6785,-0.6795,-0.6798,-0.6802,-0.6809,-0.6812,-0.682,-0.6825,-0.6828,-0.6824,-0.6829,-0.6825,-0.682,-0.6821,-0.682,-0.6819,-0.6817,-0.6816,-0.6825,-0.6825,-0.6825,0,-0.6753,-0.6759,-0.6767,-0.677,-0.6773,-0.6782,-0.6784,-0.6788,-0.6797,-0.6799,-0.6802,-0.6811,-0.6817,-0.682,-0.6819,-0.6822,-0.6822,-0.6824,-0.6819,-0.6819,-0.6818,-0.6816,-0.6816,-0.6824,-0.6825,-0.6825,-0.6825,0,-0.6751,-0.6755,-0.6755,-0.6763,-0.6767,-0.6769,-0.6777,-0.678,-0.6785,-0.679,-0.6794,-0.6801,-0.6807,-0.6808,-0.6813,-0.6812,-0.6813,-0.6818,-0.6822,-0.6816,-0.6815,-0.6814,-0.6824,-0.6824,-0.6824,-0.6824,0,0,-0.6739,-0.6751,-0.6751,-0.6755,-0.6764,-0.6767,-0.6769,-0.6775,-0.6777,-0.6783,-0.6785,-0.6791,-0.6795,-0.6799,-0.6804,-0.6805,-0.6801,-0.6809,-0.6809,-0.6807,-0.68,-0.6796,-0.6795,-0.6804,-0.6804,-0.6804,-0.6799,0,-0.6735,-0.674,-0.6747,-0.6749,-0.6753,-0.6761,-0.6763,-0.6768,-0.6773,-0.6777,-0.6783,-0.6787,-0.6792,-0.6794,-0.6795,-0.6801,-0.6799,-0.6801,-0.6806,-0.6806,-0.6803,-0.6794,-0.6791,-0.6786,-0.6798,-0.6798,-0.6798,0,-0.673,-0.6735,-0.6738,-0.6746,-0.6748,-0.6749,-0.6755,-0.6758,-0.6765,-0.6768,-0.6773,-0.6778,-0.6781,-0.6786,-0.679,-0.6791,-0.6793,-0.6796,-0.6796,-0.6797,-0.6801,-0.6794,-0.6784,-0.6783,-0.6797,-0.6797,-0.6797,0,-0.6721,-0.6728,-0.6731,-0.6733,-0.6743,-0.6744,-0.6748,-0.6755,-0.6758,-0.6763,-0.6765,-0.677,-0.6773,-0.6777,-0.6784,-0.6786,-0.6787,-0.6792,-0.6789,-0.6789,-0.6789,-0.6789,-0.6779,-0.6791,-0.6791,-0.6791,-0.6791,0,-0.6715,-0.6716,-0.6726,-0.6728,-0.6729,-0.6738,-0.6739,-0.6744,-0.6749,-0.6752,-0.6759,-0.6761,-0.6771,-0.6774,-0.6779,-0.6781,-0.6783,-0.6786,-0.6787,-0.6785,-0.6784,-0.6786,-0.6786,-0.6791,-0.6791,-0.6791,-0.6791,0,-0.6704,-0.6711,-0.6715,-0.6723,-0.6726,-0.6726,-0.6734,-0.6735,-0.6741,-0.6744,-0.6745,-0.6754,-0.6758,-0.6765,-0.6771,-0.6775,-0.6776,-0.6779,-0.6773,-0.6774,-0.6771,-0.6771,-0.6762,-0.6761,-0.6774,-0.6774,-0.6774,0,-0.67,-0.6701,-0.671,-0.6712,-0.6715,-0.6719,-0.6722,-0.673,-0.6732,-0.6739,-0.674,-0.6745,-0.6749,-0.6755,-0.6761,-0.6766,-0.6769,-0.6765,-0.677,-0.6767,-0.6768,-0.6768,-0.6768,-0.6764,-0.6764,-0.6764,-0.6764,0,-0.6691,-0.6694,-0.6698,-0.6703,-0.6706,-0.671,-0.6715,-0.6716,-0.6725,-0.6728,-0.6732,-0.6735,-0.6741,-0.6746,-0.6751,-0.6755,-0.6761,-0.6762,-0.6762,-0.6759,-0.6756,-0.6757,-0.677,-0.6762,-0.6762,-0.6762,-0.6762,-0.6763,-0.6683,-0.6684,-0.669,-0.6694,-0.6698,-0.6702,-0.6704,-0.671,-0.6713,-0.6719,-0.6723,-0.6727,-0.6733,-0.6741,-0.6745,-0.6748,-0.675,-0.675,-0.675,-0.6749,-0.6748,-0.6756,-0.6749,-0.6749,-0.6749,-0.6749,-0.6749,0,-0.6674,-0.6678,-0.6681,-0.6688,-0.669,-0.6695,-0.6701,-0.6703,-0.6706,-0.6711,-0.6715,-0.6719,-0.6723,-0.673,-0.6735,-0.6736,-0.6738,-0.6737,-0.6736,-0.6737,-0.6746,-0.6745,-0.6735,-0.6735,-0.6735,-0.6735,-0.6735,-0.6735,-0.6669,-0.6671,-0.6675,-0.6679,-0.6684,-0.6687,-0.6689,-0.6693,-0.6697,-0.6702,-0.6705,-0.671,-0.6715,-0.6721,-0.6724,-0.6726,-0.6728,-0.6725,-0.6728,-0.6735,-0.6737,-0.6738,-0.6738,-0.6725,-0.6725,-0.6719,-0.6719,-0.6719]},{"header":{"parameterUnit":"m.s-1","parameterCategory":1,"la1":30.2991,"la2":30.254,"lo1":-89.0895,"lo2":-89.0444,"dy":0.0017,"dx":0.0017,"nx":28,"ny":28,"refTime":"2024-03-14T21:00:00:Z","depth":0,"parameterNumber":3,"parameterNumberName":"V-component_of_WINDS"},"data":[0,0,0,0,0,0,0,0,0,0,0,0,0,0,0,0,0,0,0,0,0,0,0,0,0,0,0,0,0,0,0,0,0,0,0,0,0,0,0,0,0,0,0,0,0,0,0,0,0,0,0,0,0,0,0,0,0,0,2.401,2.401,0,2.4007,2.4006,2.4006,2.4004,2.4004,2.4004,2.4004,2.3999,2.3999,2.3999,0,0,0,0,0,0,0,0,0,0,0,0,0,2.4015,2.4014,2.401,2.401,2.401,2.4007,2.4006,2.4006,2.4004,2.4004,2.4004,2.4004,2.4,2.3999,2.3999,0,0,0,0,0,0,0,0,0,0,0,0,0,2.4012,2.4014,2.401,2.4008,2.4008,2.4007,2.4006,2.4006,2.4004,2.4004,2.4004,2.4004,2.4,2.3999,2.3999,2.3999,0,0,2.3999,2.3999,0,0,0,0,0,0,0,0,2.4012,2.4012,2.4008,2.4008,2.4008,2.4006,2.4007,2.4004,2.4004,2.4005,2.4004,2.4004,2.4001,2.4001,2.4001,2.3999,2.3999,2.3999,2.3999,2.3999,2.3999,0,0,0,0,0,0,0,2.4012,2.4012,2.4009,2.4008,2.4008,2.4008,2.4007,2.4006,2.4004,2.4005,2.4005,2.4005,2.4001,2.4001,2.4,2.3999,2.3999,2.3999,2.3999,2.3999,2.3998,2.3998,0,0,0,0,0,0,2.4013,2.4012,2.4009,2.4008,2.401,2.4008,2.4007,2.4006,2.4004,2.4003,2.4005,2.4005,2.4001,2.4001,2.4,2.4001,2.3999,2.3999,2.3998,2.3998,2.3998,2.3999,0,0,0,0,0,0,2.4013,2.4012,2.4009,2.401,2.401,2.4008,2.4007,2.4006,2.4006,2.4003,2.4003,2.4005,2.4001,2.4,2.4,2.4001,2.3998,2.3998,2.3998,2.3998,2.3998,2.4002,0,0,0,0,0,0,2.4013,2.4013,2.4012,2.401,2.401,2.4008,2.4007,2.4006,2.4006,2.4005,2.4003,2.4003,2.4001,2.4,2.4,2.4001,2.3998,2.3998,2.3998,2.3998,2.4002,2.4002,2.4003,0,0,0,0,0,2.4013,2.4013,2.4012,2.4012,2.4009,2.4008,2.4008,2.4006,2.4006,2.4006,2.4004,2.4003,2.4001,2.4,2.4,2.4,2.3998,2.3998,2.3998,2.4002,2.4002,2.4003,0,0,0,0,0,0,2.4014,2.4012,2.4012,2.4011,2.401,2.4008,2.4008,2.4007,2.4006,2.4005,2.4003,2.4003,2.4003,2.4001,2.4001,2.4001,2.3999,2.3999,2.4002,2.4002,2.4003,2.4003,2.3998,0,0,0,0,0,2.4014,2.4014,2.4012,2.4011,2.4011,2.401,2.4009,2.4008,2.4007,2.4006,2.4005,2.4004,2.4003,2.4002,2.4002,2.4002,2.4002,2.4002,2.4002,2.4003,2.4003,2.4004,2.4005,2.3999,2.3999,2.3999,0,0,2.4014,2.4013,2.4013,2.4012,2.4011,2.4011,2.4009,2.4008,2.4009,2.4006,2.4006,2.4005,2.4003,2.4004,2.4003,2.4003,2.4005,2.4003,2.4003,2.4003,2.4005,2.4005,2.4006,2.3999,2.3999,2.3999,0,0,2.4015,2.4014,2.4014,2.4013,2.4012,2.4012,2.4012,2.401,2.401,2.401,2.4008,2.4008,2.4007,2.4006,2.4006,2.4008,2.4007,2.4008,2.401,2.4011,2.4012,2.4012,2.4014,2.4015,2.4008,2.4008,2.4008,0,2.4015,2.4015,2.4013,2.4014,2.4014,2.4012,2.4013,2.4012,2.4011,2.4011,2.401,2.4009,2.4008,2.4009,2.401,2.4009,2.401,2.4008,2.4012,2.4012,2.4013,2.4014,2.4015,2.4008,2.4008,2.4008,2.4008,0,2.4015,2.4015,2.4016,2.4015,2.4015,2.4015,2.4015,2.4015,2.4014,2.4014,2.4014,2.4013,2.4013,2.4013,2.4012,2.4014,2.4014,2.4012,2.4011,2.4013,2.4015,2.4016,2.4008,2.4008,2.4008,2.4008,0,0,2.4015,2.4016,2.4016,2.4017,2.4016,2.4016,2.4017,2.4017,2.4018,2.4017,2.4019,2.4018,2.4018,2.4017,2.4016,2.4017,2.4021,2.4016,2.4016,2.4018,2.4025,2.4026,2.4027,2.402,2.402,2.402,2.4025,0,2.4016,2.4018,2.4017,2.4019,2.402,2.4019,2.402,2.402,2.402,2.4021,2.402,2.4021,2.4019,2.4019,2.402,2.402,2.4022,2.402,2.4021,2.4022,2.4022,2.4027,2.4029,2.4033,2.4026,2.4026,2.4026,0,2.4017,2.4018,2.402,2.4021,2.4021,2.4022,2.4023,2.4024,2.4024,2.4024,2.4025,2.4024,2.4025,2.4024,2.4026,2.4024,2.4025,2.4025,2.4026,2.4026,2.4024,2.4029,2.4034,2.4035,2.4026,2.4026,2.4026,0,2.4018,2.402,2.4021,2.4022,2.4023,2.4024,2.4024,2.4025,2.4026,2.4027,2.4027,2.4028,2.4029,2.403,2.403,2.4028,2.4032,2.403,2.4033,2.4033,2.4034,2.4034,2.404,2.4033,2.4033,2.4033,2.4033,0,2.4019,2.4021,2.4022,2.4023,2.4025,2.4025,2.4027,2.4027,2.4028,2.403,2.4029,2.4031,2.403,2.4032,2.4032,2.4034,2.4034,2.4035,2.4035,2.4035,2.4035,2.4036,2.4036,2.4034,2.4034,2.4033,2.4033,0,2.4021,2.4021,2.4024,2.4025,2.4026,2.4027,2.4029,2.403,2.4031,2.4033,2.4033,2.4034,2.4036,2.4036,2.4038,2.4038,2.4041,2.4041,2.4041,2.4042,2.4045,2.4045,2.4052,2.4054,2.4045,2.4045,2.4045,0,2.4022,2.4023,2.4025,2.4027,2.4028,2.4029,2.4031,2.4031,2.4033,2.4035,2.4036,2.4038,2.404,2.4043,2.4044,2.4046,2.4046,2.4048,2.4046,2.4047,2.4047,2.4047,2.4048,2.4049,2.4049,2.4049,2.4049,0,2.4024,2.4025,2.4026,2.4029,2.4031,2.4033,2.4034,2.4036,2.4037,2.4038,2.4041,2.4042,2.4045,2.4048,2.405,2.4051,2.405,2.405,2.4051,2.4051,2.4052,2.4053,2.4043,2.405,2.405,2.405,2.4049,2.4049,2.4025,2.4027,2.403,2.4032,2.4034,2.4036,2.4038,2.404,2.4042,2.4045,2.4045,2.4048,2.405,2.4053,2.4054,2.4057,2.4056,2.4057,2.4057,2.4058,2.4059,2.4051,2.4057,2.4057,2.4057,2.4057,2.4057,0,2.4028,2.403,2.4033,2.4036,2.4039,2.4039,2.4041,2.4043,2.4046,2.4048,2.4051,2.4054,2.4057,2.4059,2.4062,2.4064,2.4064,2.4065,2.4065,2.4065,2.4059,2.4058,2.4065,2.4065,2.4065,2.4065,2.4065,2.4065,2.403,2.4034,2.4035,2.404,2.4042,2.4045,2.4047,2.4049,2.4051,2.4056,2.4058,2.406,2.4062,2.4065,2.4068,2.4069,2.407,2.4071,2.4072,2.4066,2.4065,2.4065,2.4064,2.4072,2.4072,2.4078,2.4078,2.4078]}]]